| time (UTC) | temp C | wind direction | speed KPH | gust KPH | rain 1hr cm | rain 24hr cm | rain mn cm | humidity % | barometer mb |
| 20260508012631 | 17 | 271 | 1.6 | 4.8 | 0.00 | 0.00 | 0.00 | 17 | 1018.0 |
| 20260508012125 | 17 | 311 | 1.6 | 3.2 | 0.00 | 0.00 | 0.00 | 17 | 1017.9 |
| 20260508011639 | 17 | 311 | 0.0 | 1.6 | 0.00 | 0.00 | 0.00 | 15 | 1017.8 |
| 20260508011134 | 18 | 311 | 0.0 | 1.6 | 0.00 | 0.00 | 0.00 | 15 | 1017.8 |
| 20260508010627 | 18 | 311 | 0.0 | 4.8 | 0.00 | 0.00 | 0.00 | 14 | 1017.8 |
| 20260508010125 | 18 | 311 | 3.2 | 4.8 | 0.00 | 0.00 | 0.00 | 14 | 1017.8 |
| 20260508005638 | 18 | 360 | 1.6 | 3.2 | 0.00 | 0.00 | 0.00 | 13 | 1017.8 |
| 20260508005132 | 18 | 360 | 1.6 | 3.2 | 0.00 | 0.00 | 0.00 | 12 | 1017.8 |
| 20260508004626 | 18 | 360 | 1.6 | 3.2 | 0.00 | 0.00 | 0.00 | 13 | 1017.7 |
| 20260508004200 | 18 | 112 | 0.0 | 8.0 | 0.00 | 0.00 | 0.00 | 13 | 1017.7 |
| 20260508003653 | 19 | 137 | 1.6 | 8.0 | 0.00 | 0.00 | 0.00 | 12 | 1017.8 |
| 20260508003146 | 19 | 176 | 0.0 | 6.4 | 0.00 | 0.00 | 0.00 | 13 | 1017.8 |
| 20260508002638 | 19 | 166 | 0.0 | 12.9 | 0.00 | 0.00 | 0.00 | 12 | 1018.0 |
| 20260508002133 | 19 | 132 | 3.2 | 9.7 | 0.00 | 0.00 | 0.00 | 12 | 1017.9 |
| 20260508001645 | 20 | 168 | 3.2 | 9.7 | 0.00 | 0.00 | 0.00 | 12 | 1017.9 |
| 20260508001141 | 20 | 148 | 3.2 | 9.7 | 0.00 | 0.00 | 0.00 | 12 | 1017.9 |
| 20260508000652 | 20 | 177 | 1.6 | 11.3 | 0.00 | 0.00 | 0.00 | 12 | 1017.9 |
| 20260508000123 | 20 | 104 | 4.8 | 11.3 | 0.00 | 0.00 | 0.00 | 12 | 1017.9 |
| 20260507235656 | 20 | 113 | 1.6 | 6.4 | 0.00 | 0.00 | 0.00 | 13 | 1018.0 |
| 20260507235128 | 20 | 327 | 1.6 | 8.0 | 0.00 | 0.00 | 0.00 | 13 | 1018.1 |
| 20260507234642 | 20 | 130 | 4.8 | 8.0 | 0.00 | 0.00 | 0.00 | 12 | 1018.0 |
| 20260507234157 | 20 | 161 | 1.6 | 6.4 | 0.00 | 0.00 | 0.00 | 13 | 1018.1 |
| 20260507233630 | 20 | 227 | 1.6 | 8.0 | 0.00 | 0.00 | 0.00 | 14 | 1018.1 |
| 20260507233124 | 20 | 153 | 3.2 | 8.0 | 0.00 | 0.00 | 0.00 | 14 | 1018.2 |
| 20260507232636 | 20 | 94 | 0.0 | 8.0 | 0.00 | 0.00 | 0.00 | 15 | 1018.1 |
| 20260507232148 | 20 | 91 | 1.6 | 8.0 | 0.00 | 0.00 | 0.00 | 15 | 1018.2 |
| 20260507231644 | 20 | 97 | 1.6 | 12.9 | 0.00 | 0.00 | 0.00 | 15 | 1018.2 |
| 20260507231137 | 19 | 128 | 6.4 | 12.9 | 0.00 | 0.00 | 0.00 | 16 | 1018.3 |
| 20260507230630 | 19 | 221 | 3.2 | 9.7 | 0.00 | 0.00 | 0.00 | 16 | 1018.3 |
| 20260507230123 | 19 | 287 | 1.6 | 11.3 | 0.00 | 0.00 | 0.00 | 16 | 1018.5 |
| 20260507225635 | 20 | 126 | 4.8 | 11.3 | 0.00 | 0.00 | 0.00 | 17 | 1018.4 |
| 20260507225129 | 20 | 36 | 1.6 | 9.7 | 0.00 | 0.00 | 0.00 | 17 | 1018.5 |
| 20260507224623 | 20 | 90 | 3.2 | 6.4 | 0.00 | 0.00 | 0.00 | 17 | 1018.5 |
| 20260507224134 | 20 | 267 | 1.6 | 9.7 | 0.00 | 0.00 | 0.00 | 18 | 1018.5 |
| 20260507223627 | 19 | 238 | 4.8 | 9.7 | 0.00 | 0.00 | 0.00 | 18 | 1018.5 |
| 20260507223125 | 19 | 84 | 3.2 | 8.0 | 0.00 | 0.00 | 0.00 | 18 | 1018.6 |
| 20260507222639 | 19 | 290 | 3.2 | 8.0 | 0.00 | 0.00 | 0.00 | 18 | 1018.6 |
| 20260507222131 | 19 | 307 | 4.8 | 8.0 | 0.00 | 0.00 | 0.00 | 19 | 1018.7 |
| 20260507221625 | 19 | 146 | 3.2 | 14.5 | 0.00 | 0.00 | 0.00 | 19 | 1018.7 |
| 20260507221138 | 20 | 269 | 6.4 | 14.5 | 0.00 | 0.00 | 0.00 | 19 | 1018.8 |
| 20260507220631 | 20 | 136 | 4.8 | 12.9 | 0.00 | 0.00 | 0.00 | 20 | 1018.8 |
| 20260507220124 | 20 | 178 | 4.8 | 11.3 | 0.00 | 0.00 | 0.00 | 19 | 1018.9 |
| 20260507215637 | 20 | 310 | 1.6 | 4.8 | 0.00 | 0.00 | 0.00 | 20 | 1018.9 |
| 20260507215134 | 20 | 252 | 3.2 | 8.0 | 0.00 | 0.00 | 0.00 | 20 | 1019.1 |
| 20260507214628 | 20 | 169 | 4.8 | 8.0 | 0.00 | 0.00 | 0.00 | 20 | 1019.1 |
| 20260507214200 | 20 | 136 | 1.6 | 9.7 | 0.00 | 0.00 | 0.00 | 21 | 1019.2 |
| 20260507213633 | 20 | 311 | 4.8 | 9.7 | 0.00 | 0.00 | 0.00 | 21 | 1019.3 |
| 20260507213126 | 20 | 165 | 4.8 | 8.0 | 0.00 | 0.00 | 0.00 | 21 | 1019.4 |
| 20260507212700 | 20 | 179 | 3.2 | 8.0 | 0.00 | 0.00 | 0.00 | 22 | 1019.5 |
| 20260507212131 | 20 | 309 | 4.8 | 8.0 | 0.00 | 0.00 | 0.00 | 22 | 1019.6 |
| 20260507211624 | 20 | 150 | 3.2 | 9.7 | 0.00 | 0.00 | 0.00 | 23 | 1019.7 |
| 20260507211138 | 20 | 351 | 1.6 | 14.5 | 0.00 | 0.00 | 0.00 | 22 | 1019.8 |
| 20260507210651 | 20 | 140 | 6.4 | 14.5 | 0.00 | 0.00 | 0.00 | 21 | 1019.9 |
| 20260507210147 | 19 | 312 | 4.8 | 12.9 | 0.00 | 0.00 | 0.00 | 21 | 1020.0 |
| 20260507205640 | 18 | 154 | 3.2 | 16.1 | 0.00 | 0.00 | 0.00 | 22 | 1020.0 |
| 20260507205133 | 18 | 193 | 6.4 | 16.1 | 0.00 | 0.00 | 0.00 | 21 | 1020.1 |
| 20260507204625 | 18 | 214 | 3.2 | 8.0 | 0.00 | 0.00 | 0.00 | 23 | 1020.1 |
| 20260507204139 | 18 | 76 | 4.8 | 8.0 | 0.00 | 0.00 | 0.00 | 22 | 1020.2 |
| 20260507203631 | 18 | 29 | 1.6 | 9.7 | 0.00 | 0.00 | 0.00 | 21 | 1020.3 |
| 20260507203144 | 18 | 171 | 3.2 | 14.5 | 0.00 | 0.00 | 0.00 | 21 | 1020.5 |
| 20260507202637 | 19 | 144 | 4.8 | 17.7 | 0.00 | 0.00 | 0.00 | 21 | 1020.5 |
| 20260507202151 | 19 | 229 | 6.4 | 17.7 | 0.00 | 0.00 | 0.00 | 21 | 1020.6 |
| 20260507201627 | 19 | 132 | 1.6 | 8.0 | 0.00 | 0.00 | 0.00 | 22 | 1020.6 |
| 20260507201140 | 19 | 343 | 3.2 | 9.7 | 0.00 | 0.00 | 0.00 | 22 | 1020.7 |
| 20260507200653 | 18 | 250 | 3.2 | 9.7 | 0.00 | 0.00 | 0.00 | 22 | 1020.8 |
| 20260507200146 | 18 | 313 | 3.2 | 8.0 | 0.00 | 0.00 | 0.00 | 23 | 1020.8 |
| 20260507195638 | 17 | 86 | 4.8 | 9.7 | 0.00 | 0.00 | 0.00 | 23 | 1020.8 |
| 20260507195132 | 17 | 162 | 6.4 | 9.7 | 0.00 | 0.00 | 0.00 | 24 | 1020.9 |
| 20260507194625 | 17 | 199 | 3.2 | 9.7 | 0.00 | 0.00 | 0.00 | 23 | 1021.0 |
| 20260507194138 | 17 | 31 | 4.8 | 9.7 | 0.00 | 0.00 | 0.00 | 23 | 1021.0 |
| 20260507193630 | 17 | 198 | 1.6 | 11.3 | 0.00 | 0.00 | 0.00 | 24 | 1021.1 |
| 20260507193127 | 17 | 178 | 4.8 | 19.3 | 0.00 | 0.00 | 0.00 | 24 | 1021.3 |
| 20260507192641 | 17 | 133 | 4.8 | 11.3 | 0.00 | 0.00 | 0.00 | 23 | 1021.3 |
| 20260507192135 | 17 | 121 | 3.2 | 8.0 | 0.00 | 0.00 | 0.00 | 25 | 1021.3 |
| 20260507191627 | 17 | 40 | 4.8 | 8.0 | 0.00 | 0.00 | 0.00 | 25 | 1021.4 |
| 20260507191141 | 17 | 78 | 4.8 | 11.3 | 0.00 | 0.00 | 0.00 | 25 | 1021.4 |
| 20260507190633 | 16 | 164 | 4.8 | 14.5 | 0.00 | 0.00 | 0.00 | 25 | 1021.5 |
| 20260507190127 | 16 | 145 | 6.4 | 14.5 | 0.00 | 0.00 | 0.00 | 25 | 1021.5 |
| 20260507185640 | 16 | 87 | 1.6 | 6.4 | 0.00 | 0.00 | 0.00 | 27 | 1021.5 |
| 20260507185133 | 15 | 201 | 4.8 | 6.4 | 0.00 | 0.00 | 0.00 | 27 | 1021.7 |
| 20260507184631 | 15 | 101 | 4.8 | 9.7 | 0.00 | 0.00 | 0.00 | 27 | 1021.8 |
| 20260507184123 | 15 | 29 | 4.8 | 12.9 | 0.00 | 0.00 | 0.00 | 28 | 1021.9 |
| 20260507183636 | 15 | 58 | 1.6 | 6.4 | 0.00 | 0.00 | 0.00 | 28 | 1022.0 |
| 20260507183150 | 15 | 257 | 3.2 | 11.3 | 0.00 | 0.00 | 0.00 | 26 | 1022.0 |
| 20260507182623 | 15 | 62 | 4.8 | 11.3 | 0.00 | 0.00 | 0.00 | 27 | 1022.0 |
| 20260507182135 | 15 | 219 | 6.4 | 12.9 | 0.00 | 0.00 | 0.00 | 28 | 1022.1 |
| 20260507181650 | 15 | 150 | 4.8 | 12.9 | 0.00 | 0.00 | 0.00 | 28 | 1022.2 |
| 20260507181142 | 15 | 244 | 4.8 | 12.9 | 0.00 | 0.00 | 0.00 | 27 | 1022.3 |
| 20260507180635 | 15 | 62 | 4.8 | 11.3 | 0.00 | 0.00 | 0.00 | 28 | 1022.4 |
| 20260507180152 | 14 | 111 | 1.6 | 12.9 | 0.00 | 0.00 | 0.00 | 29 | 1022.4 |
| 20260507175626 | 13 | 173 | 3.2 | 14.5 | 0.00 | 0.00 | 0.00 | 29 | 1022.5 |
| 20260507175139 | 13 | 134 | 3.2 | 14.5 | 0.00 | 0.00 | 0.00 | 29 | 1022.6 |
| 20260507174633 | 13 | 257 | 4.8 | 9.7 | 0.00 | 0.00 | 0.00 | 28 | 1022.7 |
| 20260507174126 | 13 | 98 | 3.2 | 14.5 | 0.00 | 0.00 | 0.00 | 29 | 1022.7 |
| 20260507173639 | 13 | 126 | 4.8 | 14.5 | 0.00 | 0.00 | 0.00 | 29 | 1022.8 |
| 20260507173134 | 13 | 56 | 4.8 | 12.9 | 0.00 | 0.00 | 0.00 | 30 | 1022.8 |
| 20260507172626 | 13 | 127 | 3.2 | 12.9 | 0.00 | 0.00 | 0.00 | 30 | 1022.9 |
| 20260507172159 | 13 | 121 | 4.8 | 11.3 | 0.00 | 0.00 | 0.00 | 30 | 1023.0 |
| 20260507171636 | 13 | 167 | 4.8 | 9.7 | 0.00 | 0.00 | 0.00 | 31 | 1023.1 |
| 20260507171129 | 13 | 127 | 3.2 | 12.9 | 0.00 | 0.00 | 0.00 | 31 | 1023.1 |
| 20260507170623 | 12 | 153 | 3.2 | 14.5 | 0.00 | 0.00 | 0.00 | 32 | 1023.2 |
| 20260507170135 | 13 | 144 | 9.7 | 14.5 | 0.00 | 0.00 | 0.00 | 31 | 1023.2 |
| 20260507165629 | 12 | 44 | 4.8 | 14.5 | 0.00 | 0.00 | 0.00 | 32 | 1023.2 |
| 20260507165123 | 12 | 142 | 3.2 | 12.9 | 0.00 | 0.00 | 0.00 | 34 | 1023.2 |
| 20260507164636 | 11 | 184 | 4.8 | 9.7 | 0.00 | 0.00 | 0.00 | 34 | 1023.4 |
| 20260507164130 | 11 | 119 | 4.8 | 11.3 | 0.00 | 0.00 | 0.00 | 34 | 1023.4 |
| 20260507163626 | 11 | 153 | 6.4 | 12.9 | 0.00 | 0.00 | 0.00 | 34 | 1023.4 |
| 20260507163201 | 11 | 70 | 3.2 | 16.1 | 0.00 | 0.00 | 0.00 | 35 | 1023.4 |
| 20260507162633 | 11 | 121 | 3.2 | 11.3 | 0.00 | 0.00 | 0.00 | 36 | 1023.5 |
| 20260507162126 | 10 | 140 | 4.8 | 14.5 | 0.00 | 0.00 | 0.00 | 37 | 1023.6 |
| 20260507161641 | 11 | 26 | 4.8 | 14.5 | 0.00 | 0.00 | 0.00 | 36 | 1023.7 |
| 20260507161134 | 11 | 151 | 4.8 | 14.5 | 0.00 | 0.00 | 0.00 | 36 | 1023.8 |
| 20260507160626 | 10 | 150 | 4.8 | 14.5 | 0.00 | 0.00 | 0.00 | 38 | 1023.8 |
| 20260507160140 | 10 | 103 | 3.2 | 12.9 | 0.00 | 0.00 | 0.00 | 38 | 1023.8 |
| 20260507155634 | 10 | 101 | 4.8 | 9.7 | 0.00 | 0.00 | 0.00 | 37 | 1023.8 |
| 20260507155130 | 10 | 147 | 4.8 | 16.1 | 0.00 | 0.00 | 0.00 | 38 | 1023.8 |
| 20260507154623 | 10 | 140 | 4.8 | 14.5 | 0.00 | 0.00 | 0.00 | 38 | 1023.9 |
| 20260507154137 | 10 | 44 | 4.8 | 14.5 | 0.00 | 0.00 | 0.00 | 40 | 1023.9 |
| 20260507153630 | 9 | 166 | 4.8 | 17.7 | 0.00 | 0.00 | 0.00 | 40 | 1023.9 |
| 20260507153144 | 9 | 134 | 6.4 | 17.7 | 0.00 | 0.00 | 0.00 | 39 | 1023.9 |
| 20260507152637 | 10 | 48 | 3.2 | 17.7 | 0.00 | 0.00 | 0.00 | 38 | 1024.0 |
| 20260507152149 | 10 | 209 | 6.4 | 14.5 | 0.00 | 0.00 | 0.00 | 38 | 1023.9 |
| 20260507151623 | 10 | 85 | 4.8 | 9.7 | 0.00 | 0.00 | 0.00 | 38 | 1023.9 |
| 20260507151157 | 9 | 144 | 3.2 | 9.7 | 0.00 | 0.00 | 0.00 | 40 | 1023.9 |
| 20260507150628 | 9 | 348 | 3.2 | 14.5 | 0.00 | 0.00 | 0.00 | 40 | 1024.0 |
| 20260507150125 | 8 | 140 | 6.4 | 14.5 | 0.00 | 0.00 | 0.00 | 41 | 1024.0 |
| 20260507145700 | 9 | 121 | 8.0 | 14.5 | 0.00 | 0.00 | 0.00 | 42 | 1024.0 |
| 20260507145132 | 8 | 81 | 3.2 | 14.5 | 0.00 | 0.00 | 0.00 | 41 | 1024.1 |
| 20260507144625 | 8 | 150 | 1.6 | 11.3 | 0.00 | 0.00 | 0.00 | 45 | 1024.1 |
| 20260507144138 | 8 | 148 | 4.8 | 11.3 | 0.00 | 0.00 | 0.00 | 45 | 1024.1 |
| 20260507143632 | 8 | 51 | 3.2 | 6.4 | 0.00 | 0.00 | 0.00 | 45 | 1024.1 |
| 20260507143124 | 8 | 92 | 3.2 | 6.4 | 0.00 | 0.00 | 0.00 | 49 | 1024.1 |
| 20260507142658 | 7 | 99 | 3.2 | 11.3 | 0.00 | 0.00 | 0.00 | 50 | 1024.0 |
| 20260507142131 | 7 | 148 | 3.2 | 11.3 | 0.00 | 0.00 | 0.00 | 53 | 1024.1 |
| 20260507141627 | 6 | 146 | 1.6 | 8.0 | 0.00 | 0.00 | 0.00 | 54 | 1024.3 |
| 20260507141140 | 6 | 155 | 3.2 | 8.0 | 0.00 | 0.00 | 0.00 | 55 | 1024.3 |
| 20260507140634 | 5 | 138 | 4.8 | 8.0 | 0.00 | 0.00 | 0.00 | 57 | 1024.3 |
| 20260507140148 | 5 | 145 | 3.2 | 8.0 | 0.00 | 0.00 | 0.00 | 58 | 1024.3 |
| 20260507135641 | 4 | 160 | 1.6 | 4.8 | 0.00 | 0.00 | 0.00 | 63 | 1024.3 |
| 20260507135136 | 3 | 138 | 0.0 | 4.8 | 0.00 | 0.00 | 0.00 | 65 | 1024.4 |
| 20260507134629 | 3 | 138 | 1.6 | 4.8 | 0.00 | 0.00 | 0.00 | 66 | 1024.4 |
| 20260507134123 | 2 | 125 | 0.0 | 1.6 | 0.00 | 0.00 | 0.00 | 68 | 1024.4 |
| 20260507133635 | 2 | 160 | 0.0 | 1.6 | 0.00 | 0.00 | 0.00 | 69 | 1024.4 |
| 20260507133133 | 2 | 192 | 0.0 | 0.0 | 0.00 | 0.00 | 0.00 | 68 | 1024.4 |
| 20260507132647 | 2 | 194 | 0.0 | 0.0 | 0.00 | 0.00 | 0.00 | 70 | 1024.5 |
| 20260507132140 | 1 | 194 | 0.0 | 0.0 | 0.00 | 0.00 | 0.00 | 70 | 1024.4 |
| 20260507131633 | 1 | 194 | 0.0 | 0.0 | 0.00 | 0.00 | 0.00 | 72 | 1024.4 |
| 20260507131126 | 0 | 194 | 0.0 | 0.0 | 0.00 | 0.00 | 0.00 | 73 | 1024.4 |
| 20260507130641 | 0 | 196 | 0.0 | 0.0 | 0.00 | 0.00 | 0.00 | 74 | 1024.3 |
| 20260507130133 | 0 | 197 | 0.0 | 0.0 | 0.00 | 0.00 | 0.00 | 76 | 1024.2 |
| 20260507125627 | 0 | 254 | 0.0 | 0.0 | 0.00 | 0.00 | 0.00 | 76 | 1024.2 |
| 20260507125124 | 0 | 254 | 0.0 | 0.0 | 0.00 | 0.00 | 0.00 | 76 | 1024.1 |
| 20260507124639 | -1 | 254 | 0.0 | 0.0 | 0.00 | 0.00 | 0.00 | 76 | 1024.1 |
| 20260507124132 | -1 | 254 | 0.0 | 0.0 | 0.00 | 0.00 | 0.00 | 77 | 1024.1 |
| 20260507123625 | -1 | 254 | 0.0 | 0.0 | 0.00 | 0.00 | 0.00 | 77 | 1024.1 |
| 20260507123138 | -1 | 254 | 0.0 | 0.0 | 0.00 | 0.00 | 0.00 | 77 | 1024.1 |
| 20260507122653 | -1 | 254 | 0.0 | 0.0 | 0.00 | 0.00 | 0.00 | 77 | 1024.1 |
| 20260507122125 | -1 | 254 | 0.0 | 0.0 | 0.00 | 0.00 | 0.00 | 77 | 1024.1 |
| 20260507121639 | -1 | 254 | 0.0 | 0.0 | 0.00 | 0.00 | 0.00 | 77 | 1024.1 |
| 20260507121131 | -1 | 254 | 0.0 | 0.0 | 0.00 | 0.00 | 0.00 | 77 | 1024.1 |
| 20260507120629 | -1 | 254 | 0.0 | 0.0 | 0.00 | 0.00 | 0.00 | 77 | 1024.1 |
| 20260507120123 | -1 | 254 | 0.0 | 0.0 | 0.00 | 0.00 | 0.00 | 77 | 1024.1 |
| 20260507115637 | -1 | 254 | 0.0 | 0.0 | 0.00 | 0.00 | 0.00 | 77 | 1024.2 |
| 20260507115152 | -1 | 254 | 0.0 | 0.0 | 0.00 | 0.00 | 0.00 | 77 | 1024.2 |
| 20260507114624 | -1 | 254 | 0.0 | 0.0 | 0.00 | 0.00 | 0.00 | 77 | 1024.1 |
| 20260507114138 | -1 | 254 | 0.0 | 0.0 | 0.00 | 0.00 | 0.00 | 77 | 1024.1 |
| 20260507113631 | -1 | 254 | 0.0 | 0.0 | 0.00 | 0.00 | 0.00 | 76 | 1024.2 |
| 20260507113125 | -1 | 254 | 0.0 | 0.0 | 0.00 | 0.00 | 0.00 | 76 | 1024.2 |
| 20260507112701 | -1 | 254 | 0.0 | 0.0 | 0.00 | 0.00 | 0.00 | 76 | 1024.3 |
| 20260507112133 | -1 | 254 | 0.0 | 0.0 | 0.00 | 0.00 | 0.00 | 76 | 1024.3 |
| 20260507111631 | -1 | 254 | 0.0 | 0.0 | 0.00 | 0.00 | 0.00 | 75 | 1024.2 |
| 20260507111146 | 0 | 254 | 0.0 | 0.0 | 0.00 | 0.00 | 0.00 | 75 | 1024.1 |
| 20260507110639 | 0 | 254 | 0.0 | 0.0 | 0.00 | 0.00 | 0.00 | 74 | 1024.0 |
| 20260507110133 | 0 | 254 | 0.0 | 0.0 | 0.00 | 0.00 | 0.00 | 74 | 1024.0 |
| 20260507105628 | 0 | 254 | 0.0 | 0.0 | 0.00 | 0.00 | 0.00 | 74 | 1024.0 |
| 20260507105141 | 0 | 254 | 0.0 | 0.0 | 0.00 | 0.00 | 0.00 | 74 | 1024.0 |
| 20260507104636 | 0 | 254 | 0.0 | 0.0 | 0.00 | 0.00 | 0.00 | 73 | 1024.0 |
| 20260507104131 | 0 | 254 | 0.0 | 0.0 | 0.00 | 0.00 | 0.00 | 73 | 1024.0 |
| 20260507103646 | 0 | 254 | 0.0 | 0.0 | 0.00 | 0.00 | 0.00 | 74 | 1024.1 |
| 20260507103158 | 0 | 254 | 0.0 | 0.0 | 0.00 | 0.00 | 0.00 | 73 | 1024.0 |
| 20260507102655 | 0 | 254 | 0.0 | 0.0 | 0.00 | 0.00 | 0.00 | 73 | 1024.0 |
| 20260507102127 | 0 | 254 | 0.0 | 0.0 | 0.00 | 0.00 | 0.00 | 73 | 1024.0 |
| 20260507101641 | 0 | 254 | 0.0 | 0.0 | 0.00 | 0.00 | 0.00 | 73 | 1024.1 |
| 20260507101136 | 0 | 254 | 0.0 | 0.0 | 0.00 | 0.00 | 0.00 | 73 | 1024.1 |
| 20260507100651 | 0 | 254 | 0.0 | 0.0 | 0.00 | 0.00 | 0.00 | 73 | 1024.0 |
| 20260507100125 | 0 | 254 | 0.0 | 0.0 | 0.00 | 0.00 | 0.00 | 72 | 1024.0 |
| 20260507095638 | 0 | 254 | 0.0 | 0.0 | 0.00 | 0.00 | 0.00 | 72 | 1024.0 |
| 20260507095132 | 0 | 254 | 0.0 | 0.0 | 0.00 | 0.00 | 0.00 | 72 | 1024.0 |
| 20260507094631 | 0 | 254 | 0.0 | 0.0 | 0.00 | 0.00 | 0.00 | 72 | 1023.9 |
| 20260507094125 | 0 | 254 | 0.0 | 0.0 | 0.00 | 0.00 | 0.00 | 72 | 1023.9 |
| 20260507093639 | 0 | 254 | 0.0 | 0.0 | 0.00 | 0.00 | 0.00 | 71 | 1023.9 |
| 20260507093134 | 0 | 254 | 0.0 | 0.0 | 0.00 | 0.00 | 0.00 | 71 | 1023.9 |
| 20260507092629 | 0 | 254 | 0.0 | 0.0 | 0.00 | 0.00 | 0.00 | 71 | 1023.9 |
| 20260507092142 | 0 | 254 | 0.0 | 0.0 | 0.00 | 0.00 | 0.00 | 71 | 1023.9 |
| 20260507091657 | 0 | 254 | 0.0 | 0.0 | 0.00 | 0.00 | 0.00 | 72 | 1023.9 |
| 20260507091151 | 0 | 254 | 0.0 | 0.0 | 0.00 | 0.00 | 0.00 | 73 | 1023.9 |
| 20260507090624 | 0 | 254 | 0.0 | 0.0 | 0.00 | 0.00 | 0.00 | 72 | 1023.9 |
| 20260507090142 | 0 | 254 | 0.0 | 0.0 | 0.00 | 0.00 | 0.00 | 73 | 1023.9 |
| 20260507085636 | 0 | 254 | 0.0 | 0.0 | 0.00 | 0.00 | 0.00 | 72 | 1023.8 |
| 20260507085131 | 0 | 254 | 0.0 | 0.0 | 0.00 | 0.00 | 0.00 | 72 | 1023.9 |
| 20260507084625 | 0 | 254 | 0.0 | 0.0 | 0.00 | 0.00 | 0.00 | 71 | 1023.8 |
| 20260507084139 | 0 | 254 | 0.0 | 0.0 | 0.00 | 0.00 | 0.00 | 70 | 1023.7 |
| 20260507083634 | 0 | 254 | 0.0 | 0.0 | 0.00 | 0.00 | 0.00 | 70 | 1023.8 |
| 20260507083128 | 0 | 254 | 0.0 | 0.0 | 0.00 | 0.00 | 0.00 | 69 | 1023.9 |
| 20260507082627 | 0 | 254 | 0.0 | 0.0 | 0.00 | 0.00 | 0.00 | 69 | 1023.8 |
| 20260507082140 | 0 | 254 | 0.0 | 0.0 | 0.00 | 0.00 | 0.00 | 69 | 1023.8 |
| 20260507081634 | 0 | 254 | 0.0 | 0.0 | 0.00 | 0.00 | 0.00 | 69 | 1023.8 |
| 20260507081149 | 0 | 254 | 0.0 | 0.0 | 0.00 | 0.00 | 0.00 | 69 | 1023.8 |
| 20260507080623 | 0 | 254 | 0.0 | 0.0 | 0.00 | 0.00 | 0.00 | 68 | 1023.7 |
| 20260507080136 | 0 | 254 | 0.0 | 0.0 | 0.00 | 0.00 | 0.00 | 68 | 1023.7 |
| 20260507075630 | 0 | 254 | 0.0 | 0.0 | 0.00 | 0.00 | 0.00 | 67 | 1023.8 |
| 20260507075125 | 0 | 254 | 0.0 | 0.0 | 0.00 | 0.00 | 0.00 | 67 | 1023.8 |
| 20260507074623 | 0 | 254 | 0.0 | 0.0 | 0.00 | 0.00 | 0.00 | 67 | 1023.8 |
| 20260507074157 | 1 | 254 | 0.0 | 0.0 | 0.00 | 0.00 | 0.00 | 67 | 1023.9 |
| 20260507073651 | 1 | 254 | 0.0 | 0.0 | 0.00 | 0.00 | 0.00 | 67 | 1023.9 |
| 20260507073145 | 1 | 254 | 0.0 | 0.0 | 0.00 | 0.00 | 0.00 | 67 | 1023.9 |
| 20260507072639 | 1 | 254 | 0.0 | 3.2 | 0.00 | 0.00 | 0.00 | 68 | 1023.8 |
| 20260507072133 | 1 | 24 | 0.0 | 6.4 | 0.00 | 0.00 | 0.00 | 68 | 1023.8 |
| 20260507071628 | 1 | 45 | 1.6 | 6.4 | 0.00 | 0.00 | 0.00 | 67 | 1023.8 |
| 20260507071141 | 2 | 243 | 0.0 | 0.0 | 0.00 | 0.00 | 0.00 | 68 | 1023.8 |
| 20260507070636 | 2 | 243 | 0.0 | 0.0 | 0.00 | 0.00 | 0.00 | 68 | 1023.7 |
| 20260507070131 | 2 | 355 | 0.0 | 0.0 | 0.00 | 0.00 | 0.00 | 68 | 1023.6 |
| 20260507065645 | 2 | 265 | 0.0 | 0.0 | 0.00 | 0.00 | 0.00 | 68 | 1023.4 |
| 20260507065142 | 2 | 265 | 0.0 | 0.0 | 0.00 | 0.00 | 0.00 | 67 | 1023.4 |
| 20260507064635 | 1 | 269 | 0.0 | 0.0 | 0.00 | 0.00 | 0.00 | 68 | 1023.3 |
| 20260507064130 | 1 | 269 | 0.0 | 0.0 | 0.00 | 0.00 | 0.00 | 69 | 1023.3 |
| 20260507063624 | 1 | 269 | 0.0 | 0.0 | 0.00 | 0.00 | 0.00 | 67 | 1023.2 |
| 20260507063140 | 1 | 269 | 0.0 | 0.0 | 0.00 | 0.00 | 0.00 | 67 | 1023.2 |
| 20260507062633 | 1 | 269 | 0.0 | 0.0 | 0.00 | 0.00 | 0.00 | 66 | 1023.3 |
| 20260507062127 | 1 | 269 | 0.0 | 0.0 | 0.00 | 0.00 | 0.00 | 65 | 1023.2 |
| 20260507061625 | 1 | 269 | 0.0 | 0.0 | 0.00 | 0.00 | 0.00 | 65 | 1023.2 |
| 20260507061139 | 1 | 269 | 0.0 | 0.0 | 0.00 | 0.00 | 0.00 | 65 | 1023.2 |
| 20260507060634 | 1 | 269 | 0.0 | 0.0 | 0.00 | 0.00 | 0.00 | 66 | 1023.2 |
| 20260507060127 | 1 | 269 | 0.0 | 0.0 | 0.00 | 0.00 | 0.00 | 66 | 1023.1 |
| 20260507055638 | 1 | 269 | 0.0 | 0.0 | 0.00 | 0.00 | 0.00 | 66 | 1023.0 |
| 20260507055134 | 0 | 269 | 0.0 | 0.0 | 0.00 | 0.00 | 0.00 | 67 | 1022.9 |
| 20260507054628 | 0 | 269 | 0.0 | 0.0 | 0.00 | 0.00 | 0.00 | 66 | 1022.8 |
| 20260507054142 | 0 | 269 | 0.0 | 0.0 | 0.00 | 0.00 | 0.00 | 64 | 1022.8 |
| 20260507053637 | 0 | 269 | 0.0 | 0.0 | 0.00 | 0.00 | 0.00 | 64 | 1022.7 |
| 20260507053135 | 1 | 269 | 0.0 | 0.0 | 0.00 | 0.00 | 0.00 | 63 | 1022.7 |
| 20260507052629 | 1 | 269 | 0.0 | 0.0 | 0.00 | 0.00 | 0.00 | 62 | 1022.7 |
| 20260507052142 | 1 | 269 | 0.0 | 0.0 | 0.00 | 0.00 | 0.00 | 61 | 1022.7 |
| 20260507051637 | 1 | 269 | 0.0 | 4.8 | 0.00 | 0.00 | 0.00 | 60 | 1022.7 |
| 20260507051129 | 1 | 269 | 1.6 | 4.8 | 0.00 | 0.00 | 0.00 | 61 | 1022.8 |
| 20260507050624 | 1 | 330 | 0.0 | 0.0 | 0.00 | 0.00 | 0.00 | 60 | 1022.8 |
| 20260507050137 | 1 | 275 | 0.0 | 0.0 | 0.00 | 0.00 | 0.00 | 60 | 1022.7 |
| 20260507045631 | 2 | 275 | 0.0 | 0.0 | 0.00 | 0.00 | 0.00 | 59 | 1022.7 |
| 20260507045123 | 2 | 275 | 0.0 | 0.0 | 0.00 | 0.00 | 0.00 | 60 | 1022.5 |
| 20260507044642 | 2 | 275 | 0.0 | 0.0 | 0.00 | 0.00 | 0.00 | 59 | 1022.5 |
| 20260507044136 | 2 | 275 | 0.0 | 0.0 | 0.00 | 0.00 | 0.00 | 58 | 1022.5 |
| 20260507043630 | 2 | 275 | 0.0 | 0.0 | 0.00 | 0.00 | 0.00 | 59 | 1022.4 |
| 20260507043125 | 2 | 275 | 0.0 | 0.0 | 0.00 | 0.00 | 0.00 | 59 | 1022.4 |
| 20260507042639 | 3 | 275 | 0.0 | 0.0 | 0.00 | 0.00 | 0.00 | 58 | 1022.3 |
| 20260507042134 | 3 | 275 | 0.0 | 0.0 | 0.00 | 0.00 | 0.00 | 58 | 1022.3 |
| 20260507041648 | 3 | 275 | 0.0 | 0.0 | 0.00 | 0.00 | 0.00 | 59 | 1022.2 |
| 20260507041141 | 3 | 275 | 0.0 | 0.0 | 0.00 | 0.00 | 0.00 | 57 | 1022.2 |
| 20260507040656 | 4 | 275 | 0.0 | 0.0 | 0.00 | 0.00 | 0.00 | 60 | 1022.2 |
| 20260507040152 | 4 | 275 | 0.0 | 3.2 | 0.00 | 0.00 | 0.00 | 60 | 1022.1 |
| 20260507035625 | 5 | 275 | 0.0 | 3.2 | 0.00 | 0.00 | 0.00 | 61 | 1022.0 |
| 20260507035140 | 5 | 275 | 0.0 | 4.8 | 0.00 | 0.00 | 0.00 | 60 | 1021.9 |
| 20260507034634 | 5 | 188 | 1.6 | 4.8 | 0.00 | 0.00 | 0.00 | 61 | 1021.8 |
| 20260507034127 | 6 | 136 | 0.0 | 0.0 | 0.00 | 0.00 | 0.00 | 60 | 1021.7 |
| 20260507033640 | 6 | 136 | 0.0 | 1.6 | 0.00 | 0.00 | 0.00 | 59 | 1021.6 |
| 20260507033134 | 6 | 136 | 0.0 | 3.2 | 0.00 | 0.00 | 0.00 | 59 | 1021.5 |
| 20260507032627 | 6 | 136 | 1.6 | 6.4 | 0.00 | 0.00 | 0.00 | 58 | 1021.5 |
| 20260507032123 | 6 | 136 | 3.2 | 6.4 | 0.00 | 0.00 | 0.00 | 56 | 1021.3 |
| 20260507031638 | 6 | 133 | 0.0 | 4.8 | 0.00 | 0.00 | 0.00 | 55 | 1021.3 |
| 20260507031132 | 7 | 111 | 0.0 | 3.2 | 0.00 | 0.00 | 0.00 | 53 | 1021.1 |
| 20260507030625 | 7 | 113 | 1.6 | 3.2 | 0.00 | 0.00 | 0.00 | 52 | 1021.1 |
| 20260507030140 | 7 | 61 | 1.6 | 6.4 | 0.00 | 0.00 | 0.00 | 52 | 1021.1 |
| 20260507025653 | 7 | 79 | 1.6 | 8.0 | 0.00 | 0.03 | 0.00 | 49 | 1021.0 |
| 20260507025125 | 8 | 132 | 1.6 | 6.4 | 0.00 | 0.03 | 0.00 | 46 | 1020.8 |
| 20260507024639 | 8 | 72 | 0.0 | 4.8 | 0.00 | 0.03 | 0.00 | 39 | 1020.7 |
| 20260507024134 | 8 | 309 | 1.6 | 4.8 | 0.00 | 0.03 | 0.00 | 40 | 1020.5 |
| 20260507023632 | 8 | 345 | 0.0 | 6.4 | 0.00 | 0.03 | 0.00 | 39 | 1020.3 |
| 20260507023126 | 8 | 315 | 1.6 | 6.4 | 0.00 | 0.03 | 0.00 | 39 | 1020.1 |
| 20260507022639 | 8 | 282 | 0.0 | 0.0 | 0.00 | 0.03 | 0.00 | 39 | 1020.0 |
| 20260507022133 | 9 | 34 | 0.0 | 0.0 | 0.00 | 0.03 | 0.00 | 35 | 1019.9 |
| 20260507021626 | 9 | 34 | 0.0 | 0.0 | 0.00 | 0.03 | 0.00 | 35 | 1019.7 |
| 20260507021140 | 10 | 34 | 0.0 | 0.0 | 0.00 | 0.03 | 0.00 | 36 | 1019.6 |
| 20260507020633 | 10 | 34 | 0.0 | 4.8 | 0.00 | 0.03 | 0.00 | 34 | 1019.5 |
| 20260507020126 | 10 | 43 | 0.0 | 9.7 | 0.00 | 0.03 | 0.00 | 33 | 1019.4 |
| 20260507015624 | 10 | 32 | 1.6 | 9.7 | 0.00 | 0.03 | 0.00 | 33 | 1019.3 |
| 20260507015139 | 10 | 22 | 1.6 | 9.7 | 0.00 | 0.03 | 0.00 | 33 | 1019.3 |
| 20260507014634 | 10 | 57 | 3.2 | 8.0 | 0.00 | 0.03 | 0.00 | 34 | 1019.2 |
| 20260507014127 | 10 | 54 | 1.6 | 8.0 | 0.00 | 0.03 | 0.00 | 35 | 1019.2 |
| 20260507013622 | 10 | 35 | 1.6 | 3.2 | 0.00 | 0.03 | 0.00 | 38 | 1019.1 |
| 20260507013135 | 10 | 32 | 1.6 | 8.0 | 0.00 | 0.03 | 0.00 | 38 | 1019.1 |